User: anonymous   Login
Location: Mactaquac Provincial Park
(45.9573°N, 66.8897°W)
Time: 01:35:48
(UTC-03:00)
Language:

Cosmos 1766 - Orbit

View from above orbital plane
View from above orbital plane
View from above satellite
View from above satellite

Ground track
Ground track

The orbit data is extracted from the following two-line orbital elements,

1 16881U 86055A   15108.83736610  .00005326  00000-0  34550-3 0  9993
2 16881 082.5059 075.7945 0008793 264.2763 095.7463 15.07868782562222
Epoch (UTC): 18 April 2015 20:05:48
Eccentricity: 0.0008793
inclination: 82.5059°
perigee height: 536 km
apogee height: 549 km
right ascension of ascending node: 75.7945°
argument of perigee: 264.2763°
revolutions per day: 15.07868782
mean anomaly at epoch: 95.7463°
orbit number at epoch: 56222

The dashed part of the orbit path shows where the satellite is in the earth's shadow,  

DLR